Terug naar catalogus

SL-14 R/B

ActiefPO
NORAD 14033·ROCKET BODY·🇷🇺 Russia

Gelanceerd Apr 23, 1983 vanaf Plesetsk Cosmodrome

Loading…

Volgende Passages (komende 24 uur)

TLE

VersSource: Space-Track

Epoch: Sep 14, 2026, 09:41 UTC

1 14033U 83037B   26257.40350743  .00000342  00000-0  35897-4 0  9995
2 14033  82.5046  53.9090 0018097 125.3570 234.9341 14.86323148959371

Volg SL-14 R/B in realtime met AllMySat

Download on the App Store